RYR87AY LIPE-LATI

Flight info

Callsign RYR87AY
Flight time 1h 36m
Altitude 37000
Route LUMAV M859 CHI DCT LOS DCT EBITA DCT SPL DCT SIPAL DCT TIBRI DCT LEBGA L607 PETAK
Aircraft B738/M-SDE2E3FGHIRWXY/LB1

Departure

Time 2026-05-01 13:45
Airport Bologna Guglielmo Marconi Airport (LIPE)

Arrival

Time 2026-05-01 15:21
Airport Tirana International Airport Mother Teresa (LATI)
Time Latitude Longitude Altitude Speed Heading
2026-05-01 13:13 44.53063 11.29382 126 ft 0 kts 207°
2026-05-01 13:35 44.53086 11.29409 120 ft 4 kts 253°
2026-05-01 13:36 44.53086 11.29444 120 ft 4 kts 287°
2026-05-01 13:36 44.53078 11.29474 121 ft 1 kts 297°
2026-05-01 13:39 44.53097 11.29420 123 ft 12 kts 297°
2026-05-01 13:40 44.53140 11.29304 125 ft 13 kts 296°
2026-05-01 13:40 44.53177 11.29219 124 ft 9 kts 323°
2026-05-01 13:40 44.53231 11.29180 121 ft 9 kts 312°
2026-05-01 13:40 44.53266 11.29093 122 ft 12 kts 297°
2026-05-01 13:41 44.53311 11.28968 122 ft 17 kts 297°
2026-05-01 13:41 44.53370 11.28805 125 ft 21 kts 297°
2026-05-01 13:41 44.53438 11.28614 123 ft 23 kts 296°
2026-05-01 13:41 44.53510 11.28414 125 ft 24 kts 297°
2026-05-01 13:42 44.53588 11.28198 124 ft 25 kts 297°
2026-05-01 13:42 44.53663 11.27992 124 ft 23 kts 296°
2026-05-01 13:42 44.53734 11.27794 123 ft 22 kts 297°
2026-05-01 13:42 44.53804 11.27602 123 ft 22 kts 297°
2026-05-01 13:43 44.53866 11.27425 125 ft 15 kts 297°
2026-05-01 13:43 44.53928 11.27316 124 ft 14 kts 326°
2026-05-01 13:43 44.54009 11.27242 124 ft 14 kts 327°
2026-05-01 13:43 44.54090 11.27238 120 ft 13 kts 48°
2026-05-01 13:44 44.54087 11.27362 124 ft 18 kts 115°
2026-05-01 13:44 44.53933 11.27794 123 ft 83 kts 116°
2026-05-01 13:44 44.53577 11.28779 125 ft 141 kts 116°
2026-05-01 13:44 44.53091 11.30175 357 ft 168 kts 115°
2026-05-01 13:45 44.52574 11.31654 973 ft 172 kts 105°
2026-05-01 13:45 44.52612 11.33319 1560 ft 175 kts 63°
2026-05-01 13:45 44.53446 11.34463 2394 ft 173 kts 22°
2026-05-01 13:45 44.54615 11.34826 3206 ft 169 kts 19°
2026-05-01 13:46 44.55751 11.35348 3783 ft 183 kts 24°
2026-05-01 13:46 44.57026 11.36069 3968 ft 207 kts 24°
2026-05-01 13:46 44.58370 11.36960 4401 ft 217 kts 28°
2026-05-01 13:46 44.59692 11.37928 5208 ft 212 kts 30°
2026-05-01 13:47 44.60995 11.38941 5921 ft 214 kts 33°
2026-05-01 13:47 44.62293 11.39945 6728 ft 211 kts 30°
2026-05-01 13:47 44.63584 11.40916 7449 ft 211 kts 31°
2026-05-01 13:47 44.64849 11.41959 8107 ft 213 kts 38°
2026-05-01 13:48 44.66069 11.43312 8338 ft 236 kts 42°
2026-05-01 13:48 44.67363 11.44874 8677 ft 252 kts 42°
2026-05-01 13:48 44.68709 11.46504 9368 ft 257 kts 42°
2026-05-01 13:48 44.70069 11.48140 10173 ft 257 kts 42°
2026-05-01 13:49 44.71440 11.49779 10748 ft 266 kts 42°
2026-05-01 13:49 44.72913 11.51535 10901 ft 288 kts 41°
2026-05-01 13:49 44.74494 11.53413 11191 ft 305 kts 41°
2026-05-01 13:49 44.76133 11.55354 11788 ft 310 kts 41°
2026-05-01 13:50 44.77786 11.57312 12524 ft 311 kts 41°
2026-05-01 13:50 44.79449 11.59283 13254 ft 314 kts 41°
2026-05-01 13:50 44.81128 11.61348 13955 ft 318 kts 46°
2026-05-01 13:50 44.82398 11.63911 14623 ft 322 kts 60°
2026-05-01 13:51 44.83457 11.66657 15287 ft 325 kts 60°
2026-05-01 13:51 44.84534 11.69481 15925 ft 329 kts 60°
2026-05-01 13:51 44.85628 11.72338 16573 ft 333 kts 60°
2026-05-01 13:51 44.86742 11.75227 17218 ft 337 kts 59°
2026-05-01 13:52 44.87875 11.78152 17863 ft 341 kts 59°
2026-05-01 13:52 44.89022 11.81104 18502 ft 346 kts 59°
2026-05-01 13:52 44.90184 11.84089 19077 ft 349 kts 59°
2026-05-01 13:52 44.91357 11.87107 19642 ft 352 kts 59°
2026-05-01 13:53 44.92621 11.90362 20282 ft 355 kts 59°
2026-05-01 13:53 44.94926 11.96333 21458 ft 358 kts 59°
2026-05-01 13:53 44.96109 11.99402 21974 ft 362 kts 59°
2026-05-01 13:54 44.97316 12.02539 22514 ft 365 kts 59°
2026-05-01 13:54 44.98533 12.05704 23042 ft 368 kts 59°
2026-05-01 13:54 44.99758 12.08897 23556 ft 371 kts 59°
2026-05-01 13:54 45.00994 12.12121 24044 ft 375 kts 59°
2026-05-01 13:55 45.02238 12.15366 24468 ft 377 kts 59°
2026-05-01 13:55 45.03488 12.18631 24908 ft 379 kts 59°
2026-05-01 13:55 45.04746 12.21923 25325 ft 382 kts 59°
2026-05-01 13:55 45.05851 12.25360 25704 ft 390 kts 71°
2026-05-01 13:56 45.06249 12.29253 26112 ft 400 kts 84°
2026-05-01 13:56 45.05992 12.33144 26499 ft 411 kts 99°
2026-05-01 13:56 45.05133 12.37097 26978 ft 415 kts 103°
2026-05-01 13:56 45.04207 12.40892 27467 ft 415 kts 103°
2026-05-01 13:57 45.03244 12.44753 27801 ft 419 kts 103°
2026-05-01 13:57 45.02586 12.47399 28017 ft 422 kts 103°
2026-05-01 13:57 45.01289 12.52659 28460 ft 425 kts 103°
2026-05-01 13:57 45.00336 12.56568 28811 ft 427 kts 103°
2026-05-01 13:58 44.99373 12.60543 29162 ft 429 kts 103°
2026-05-01 13:58 44.98406 12.64556 29474 ft 432 kts 103°
2026-05-01 13:58 44.97436 12.68584 29795 ft 435 kts 103°
2026-05-01 13:58 44.96462 12.72630 30202 ft 436 kts 102°
2026-05-01 13:59 44.95484 12.76678 30574 ft 436 kts 102°
2026-05-01 13:59 44.94504 12.80737 30812 ft 438 kts 102°
2026-05-01 13:59 44.93517 12.84816 31062 ft 440 kts 102°
2026-05-01 13:59 44.92524 12.88906 31403 ft 439 kts 103°
2026-05-01 14:00 44.91534 12.92972 31809 ft 437 kts 103°
2026-05-01 14:00 44.90549 12.97012 32211 ft 435 kts 103°
2026-05-01 14:00 44.89564 13.01046 32555 ft 434 kts 103°
2026-05-01 14:00 44.88581 13.05070 32920 ft 434 kts 102°
2026-05-01 14:01 44.87603 13.09053 33613 ft 424 kts 102°
2026-05-01 14:01 44.86643 13.12953 34128 ft 420 kts 102°
2026-05-01 14:01 44.85686 13.16851 34311 ft 423 kts 102°
2026-05-01 14:01 44.84722 13.20785 34443 ft 426 kts 102°
2026-05-01 14:02 44.83643 13.24695 34652 ft 433 kts 110°
2026-05-01 14:02 44.82168 13.28424 34913 ft 436 kts 113°
2026-05-01 14:02 44.81118 13.30910 35066 ft 437 kts 114°
2026-05-01 14:02 44.79541 13.34583 35238 ft 439 kts 114°
2026-05-01 14:03 44.77953 13.38274 35364 ft 442 kts 114°
2026-05-01 14:03 44.76371 13.41966 35745 ft 438 kts 114°
2026-05-01 14:03 44.74832 13.45573 36127 ft 434 kts 114°
2026-05-01 14:03 44.73283 13.49232 36217 ft 438 kts 114°
2026-05-01 14:04 44.70160 13.56655 36454 ft 442 kts 114°
2026-05-01 14:04 44.68597 13.60368 36679 ft 442 kts 114°
2026-05-01 14:04 44.67030 13.64084 36907 ft 441 kts 114°
2026-05-01 14:05 44.65466 13.67790 37089 ft 442 kts 114°
2026-05-01 14:05 44.63892 13.71513 37269 ft 444 kts 114°
2026-05-01 14:05 44.60763 13.78896 37318 ft 438 kts 114°
2026-05-01 14:06 44.57633 13.86268 37335 ft 442 kts 114°
2026-05-01 14:06 44.54472 13.93702 37325 ft 445 kts 114°
2026-05-01 14:07 44.51287 14.01163 37318 ft 448 kts 115°
2026-05-01 14:08 44.46458 14.12435 37312 ft 451 kts 115°
2026-05-01 14:08 44.43229 14.19945 37295 ft 450 kts 115°
2026-05-01 14:09 44.40002 14.27430 37291 ft 448 kts 115°
2026-05-01 14:09 44.36786 14.34872 37328 ft 446 kts 115°
2026-05-01 14:10 44.33581 14.42273 37301 ft 444 kts 115°
2026-05-01 14:10 44.30383 14.49638 37290 ft 442 kts 115°
2026-05-01 14:11 44.27196 14.56959 37292 ft 440 kts 115°
2026-05-01 14:11 44.22430 14.67873 37283 ft 438 kts 116°
2026-05-01 14:12 44.19256 14.75118 37283 ft 438 kts 116°
2026-05-01 14:12 44.16053 14.82415 37282 ft 439 kts 116°
2026-05-01 14:13 44.13399 14.88444 37289 ft 440 kts 116°
2026-05-01 14:13 44.09645 14.96953 37306 ft 443 kts 116°
2026-05-01 14:14 44.06407 15.04270 37278 ft 445 kts 116°
2026-05-01 14:14 44.03157 15.11596 37265 ft 446 kts 116°
2026-05-01 14:15 43.99894 15.18929 37269 ft 446 kts 116°
2026-05-01 14:15 43.96625 15.26260 37273 ft 446 kts 116°
2026-05-01 14:16 43.93352 15.33580 37276 ft 447 kts 117°
2026-05-01 14:16 43.90075 15.40892 37265 ft 447 kts 117°
2026-05-01 14:17 43.86790 15.48201 37276 ft 446 kts 117°
2026-05-01 14:17 43.83506 15.55493 37261 ft 446 kts 117°
2026-05-01 14:18 43.80216 15.62778 37264 ft 446 kts 117°
2026-05-01 14:18 43.77475 15.68836 37252 ft 447 kts 117°
2026-05-01 14:19 43.73607 15.77360 37246 ft 448 kts 118°
2026-05-01 14:19 43.70307 15.84612 37246 ft 449 kts 118°
2026-05-01 14:20 43.65287 15.95610 37240 ft 450 kts 118°
2026-05-01 14:21 43.61966 16.02864 37239 ft 451 kts 118°
2026-05-01 14:21 43.58606 16.10186 37218 ft 452 kts 118°
2026-05-01 14:22 43.53546 16.21174 37213 ft 453 kts 118°
2026-05-01 14:22 43.50159 16.28508 37215 ft 454 kts 118°
2026-05-01 14:23 43.46768 16.35832 37237 ft 454 kts 118°
2026-05-01 14:23 43.45619 16.38307 37220 ft 454 kts 119°
2026-05-01 14:24 43.43152 16.43619 37214 ft 454 kts 119°
2026-05-01 14:25 43.39745 16.50940 37238 ft 455 kts 118°
2026-05-01 14:25 43.36326 16.58268 37249 ft 456 kts 118°
2026-05-01 14:26 43.31171 16.69282 37242 ft 458 kts 118°
2026-05-01 14:27 43.27718 16.76638 37245 ft 459 kts 119°
2026-05-01 14:27 43.24255 16.83994 37247 ft 459 kts 119°
2026-05-01 14:28 43.19039 16.95040 37201 ft 460 kts 119°
2026-05-01 14:28 43.15557 17.02391 37194 ft 460 kts 119°
2026-05-01 14:29 43.12069 17.09738 37194 ft 461 kts 120°
2026-05-01 14:30 43.05065 17.24435 37186 ft 461 kts 120°
2026-05-01 14:31 42.99801 17.35430 37102 ft 460 kts 120°
2026-05-01 14:31 42.98053 17.39073 36803 ft 456 kts 120°
2026-05-01 14:31 42.96325 17.42665 36570 ft 450 kts 120°
2026-05-01 14:31 42.94618 17.46211 36315 ft 444 kts 120°
2026-05-01 14:32 42.92929 17.49715 36067 ft 440 kts 120°
2026-05-01 14:32 42.91254 17.53189 35825 ft 436 kts 120°
2026-05-01 14:32 42.89594 17.56628 35586 ft 433 kts 120°
2026-05-01 14:32 42.87944 17.60044 35353 ft 430 kts 120°
2026-05-01 14:33 42.86305 17.63433 35112 ft 427 kts 120°
2026-05-01 14:33 42.84695 17.66757 34880 ft 425 kts 120°
2026-05-01 14:33 42.83072 17.70104 34649 ft 424 kts 120°
2026-05-01 14:33 42.81441 17.73467 34423 ft 428 kts 120°
2026-05-01 14:34 42.80256 17.75910 34284 ft 430 kts 120°
2026-05-01 14:34 42.78606 17.79304 34043 ft 429 kts 120°
2026-05-01 14:34 42.76961 17.82680 33768 ft 426 kts 120°
2026-05-01 14:34 42.75324 17.86036 33500 ft 424 kts 120°
2026-05-01 14:35 42.73698 17.89366 33229 ft 421 kts 120°
2026-05-01 14:35 42.72080 17.92677 32953 ft 419 kts 120°
2026-05-01 14:35 42.70473 17.95961 32700 ft 416 kts 120°
2026-05-01 14:35 42.68882 17.99208 32426 ft 411 kts 120°
2026-05-01 14:36 42.67308 18.02417 32116 ft 406 kts 120°
2026-05-01 14:36 42.65746 18.05601 31762 ft 403 kts 120°
2026-05-01 14:36 42.64199 18.08750 31426 ft 399 kts 120°
2026-05-01 14:36 42.62661 18.11876 31096 ft 396 kts 120°
2026-05-01 14:37 42.61137 18.14974 30766 ft 393 kts 120°
2026-05-01 14:37 42.59623 18.18047 30440 ft 390 kts 119°
2026-05-01 14:37 42.58123 18.21087 30087 ft 387 kts 119°
2026-05-01 14:37 42.56632 18.24109 29717 ft 383 kts 119°
2026-05-01 14:38 42.55157 18.27093 29381 ft 379 kts 119°
2026-05-01 14:38 42.53698 18.30040 29051 ft 374 kts 120°
2026-05-01 14:38 42.52256 18.32953 28712 ft 370 kts 120°
2026-05-01 14:38 42.50828 18.35835 28395 ft 366 kts 120°
2026-05-01 14:39 42.49414 18.38685 28049 ft 363 kts 120°
2026-05-01 14:39 42.48015 18.41503 27743 ft 358 kts 120°
2026-05-01 14:39 42.46633 18.44286 27412 ft 355 kts 120°
2026-05-01 14:39 42.45255 18.47059 27062 ft 353 kts 121°
2026-05-01 14:40 42.43887 18.49807 26766 ft 351 kts 121°
2026-05-01 14:40 42.42526 18.52537 26430 ft 350 kts 121°
2026-05-01 14:40 42.41121 18.55216 26112 ft 349 kts 127°
2026-05-01 14:40 42.39414 18.57545 25819 ft 348 kts 135°
2026-05-01 14:41 42.37597 18.59694 25504 ft 346 kts 136°
2026-05-01 14:41 42.35775 18.61806 25183 ft 344 kts 137°
2026-05-01 14:41 42.33964 18.63902 24876 ft 342 kts 137°
2026-05-01 14:41 42.32161 18.65998 24568 ft 340 kts 136°
2026-05-01 14:42 42.30375 18.68083 24261 ft 339 kts 136°
2026-05-01 14:42 42.29237 18.69415 24066 ft 338 kts 136°
2026-05-01 14:42 42.27468 18.71489 23770 ft 336 kts 136°
2026-05-01 14:42 42.25706 18.73557 23402 ft 335 kts 136°
2026-05-01 14:43 42.23952 18.75617 23061 ft 333 kts 136°
2026-05-01 14:43 42.22216 18.77655 22764 ft 330 kts 136°
2026-05-01 14:43 42.20490 18.79680 22452 ft 328 kts 136°
2026-05-01 14:43 42.18779 18.81686 22161 ft 325 kts 136°
2026-05-01 14:44 42.17071 18.83688 21860 ft 325 kts 136°
2026-05-01 14:44 42.13786 18.87536 21278 ft 331 kts 136°
2026-05-01 14:44 42.12029 18.89593 20984 ft 338 kts 137°
2026-05-01 14:45 42.10249 18.91675 20660 ft 338 kts 137°
2026-05-01 14:45 42.06715 18.95798 20026 ft 334 kts 137°
2026-05-01 14:45 42.04962 18.97841 19718 ft 332 kts 137°
2026-05-01 14:46 42.03220 18.99871 19406 ft 330 kts 136°
2026-05-01 14:46 41.99764 19.03893 18805 ft 327 kts 137°
2026-05-01 14:46 41.98044 19.05893 18489 ft 326 kts 137°
2026-05-01 14:47 41.96333 19.07881 18165 ft 325 kts 136°
2026-05-01 14:47 41.94631 19.09858 17835 ft 323 kts 136°
2026-05-01 14:47 41.92937 19.11825 17527 ft 321 kts 136°
2026-05-01 14:48 41.89578 19.15716 16919 ft 317 kts 136°
2026-05-01 14:48 41.87924 19.17653 16616 ft 314 kts 134°
2026-05-01 14:48 41.84778 19.21655 16041 ft 309 kts 131°
2026-05-01 14:49 41.81912 19.25574 15492 ft 306 kts 131°
2026-05-01 14:49 41.78906 19.29552 14922 ft 303 kts 131°
2026-05-01 14:50 41.76462 19.32916 14477 ft 300 kts 128°
2026-05-01 14:50 41.73367 19.37895 13922 ft 298 kts 125°
2026-05-01 14:51 41.72075 19.40052 13622 ft 296 kts 124°
2026-05-01 14:51 41.69461 19.44275 13035 ft 293 kts 127°
2026-05-01 14:52 41.66855 19.48395 12467 ft 288 kts 126°
2026-05-01 14:52 41.65569 19.50454 12162 ft 287 kts 127°
2026-05-01 14:52 41.62434 19.53567 11550 ft 290 kts 162°
2026-05-01 14:53 41.60448 19.54130 11194 ft 293 kts 171°
2026-05-01 14:53 41.58432 19.54413 10920 ft 291 kts 174°
2026-05-01 14:53 41.56414 19.54625 10626 ft 291 kts 174°
2026-05-01 14:53 41.54396 19.54838 10337 ft 291 kts 174°
2026-05-01 14:54 41.52385 19.55065 10104 ft 287 kts 173°
2026-05-01 14:54 41.50419 19.55284 9909 ft 282 kts 172°
2026-05-01 14:54 41.48466 19.55535 9607 ft 281 kts 172°
2026-05-01 14:54 41.46519 19.55795 9308 ft 281 kts 172°
2026-05-01 14:55 41.44581 19.56056 9013 ft 279 kts 172°
2026-05-01 14:55 41.42652 19.56318 8739 ft 278 kts 171°
2026-05-01 14:55 41.40727 19.56574 8446 ft 278 kts 171°
2026-05-01 14:55 41.38802 19.56789 8151 ft 277 kts 172°
2026-05-01 14:56 41.36896 19.57053 7875 ft 275 kts 171°
2026-05-01 14:56 41.34991 19.57324 7580 ft 275 kts 170°
2026-05-01 14:56 41.33091 19.57593 7297 ft 275 kts 170°
2026-05-01 14:56 41.31189 19.57846 7016 ft 275 kts 173°
2026-05-01 14:57 41.29282 19.58087 6729 ft 275 kts 171°
2026-05-01 14:57 41.25463 19.58634 6164 ft 276 kts 171°
2026-05-01 14:57 41.23556 19.58899 5882 ft 275 kts 171°
2026-05-01 14:58 41.21713 19.59124 5627 ft 270 kts 171°
2026-05-01 14:58 41.19864 19.59592 5346 ft 258 kts 152°
2026-05-01 14:58 41.18509 19.61007 5110 ft 244 kts 123°
2026-05-01 14:58 41.17769 19.62984 4873 ft 238 kts 103°
2026-05-01 14:59 41.17637 19.65142 4604 ft 234 kts 84°
2026-05-01 14:59 41.17774 19.67288 4364 ft 233 kts 83°
2026-05-01 14:59 41.17903 19.69427 4248 ft 230 kts 84°
2026-05-01 14:59 41.18111 19.71515 4103 ft 226 kts 75°
2026-05-01 15:00 41.20142 19.74411 3786 ft 225 kts 22°
2026-05-01 15:00 41.21700 19.74684 3578 ft 231 kts 359°
2026-05-01 15:00 41.23353 19.74485 3167 ft 252 kts 357°
2026-05-01 15:01 41.25120 19.74273 3125 ft 254 kts 359°
2026-05-01 15:01 41.26895 19.74022 2984 ft 260 kts 356°
2026-05-01 15:01 41.28684 19.73764 2970 ft 258 kts 359°
2026-05-01 15:01 41.30494 19.73545 2795 ft 254 kts 359°
2026-05-01 15:02 41.32152 19.73315 3267 ft 227 kts 357°
2026-05-01 15:02 41.33180 19.73146 3296 ft 224 kts 356°
2026-05-01 15:02 41.35288 19.72717 2973 ft 234 kts 359°
2026-05-01 15:02 41.36896 19.72605 3001 ft 232 kts 359°
2026-05-01 15:03 41.38471 19.72434 2993 ft 226 kts 358°
2026-05-01 15:03 41.40000 19.72240 2988 ft 214 kts 358°
2026-05-01 15:03 41.41458 19.72050 3010 ft 211 kts 358°
2026-05-01 15:03 41.42919 19.71857 3022 ft 211 kts 356°
2026-05-01 15:04 41.44368 19.71577 2990 ft 208 kts 354°
2026-05-01 15:04 41.45788 19.71265 2992 ft 206 kts 354°
2026-05-01 15:04 41.47219 19.70973 2981 ft 205 kts 354°
2026-05-01 15:04 41.48620 19.70657 3021 ft 204 kts 354°
2026-05-01 15:05 41.50015 19.70206 2986 ft 212 kts 335°
2026-05-01 15:05 41.51150 19.68927 3016 ft 217 kts 322°
2026-05-01 15:05 41.52254 19.67536 2979 ft 218 kts 323°
2026-05-01 15:05 41.53350 19.66153 2990 ft 216 kts 323°
2026-05-01 15:06 41.54440 19.64775 3019 ft 214 kts 323°
2026-05-01 15:06 41.55486 19.63480 3317 ft 207 kts 324°
2026-05-01 15:06 41.56619 19.62101 3525 ft 234 kts 323°
2026-05-01 15:06 41.57802 19.60588 3993 ft 237 kts 313°
2026-05-01 15:07 41.58478 19.58571 4019 ft 242 kts 280°
2026-05-01 15:07 41.58454 19.56564 4021 ft 239 kts 267°
2026-05-01 15:07 41.58258 19.54343 3997 ft 243 kts 266°
2026-05-01 15:07 41.57987 19.52128 4001 ft 243 kts 252°
2026-05-01 15:08 41.57056 19.50282 3997 ft 242 kts 216°
2026-05-01 15:08 41.55537 19.49356 4034 ft 243 kts 183°
2026-05-01 15:08 41.53851 19.49229 4008 ft 241 kts 177°
2026-05-01 15:08 41.52201 19.49229 4003 ft 233 kts 175°
2026-05-01 15:09 41.50599 19.49264 3996 ft 228 kts 175°
2026-05-01 15:09 41.49011 19.49305 3991 ft 228 kts 175°
2026-05-01 15:09 41.47419 19.49374 4002 ft 231 kts 174°
2026-05-01 15:09 41.45791 19.49471 4019 ft 243 kts 167°
2026-05-01 15:10 41.44054 19.50066 4003 ft 268 kts 159°
2026-05-01 15:10 41.40438 19.51500 3985 ft 271 kts 160°
2026-05-01 15:10 41.38620 19.52179 4005 ft 272 kts 160°
2026-05-01 15:11 41.36771 19.52865 3996 ft 273 kts 162°
2026-05-01 15:11 41.33155 19.54163 3984 ft 264 kts 162°
2026-05-01 15:11 41.31422 19.54791 3968 ft 253 kts 162°
2026-05-01 15:12 41.29755 19.55376 3966 ft 242 kts 162°
2026-05-01 15:12 41.26617 19.56472 3973 ft 228 kts 162°
2026-05-01 15:12 41.25088 19.57014 3983 ft 228 kts 161°
2026-05-01 15:13 41.20386 19.58643 3984 ft 233 kts 162°
2026-05-01 15:14 41.17771 19.60742 3988 ft 219 kts 109°
2026-05-01 15:14 41.17445 19.62656 3962 ft 206 kts 90°
2026-05-01 15:14 41.17667 19.66210 4012 ft 190 kts 82°
2026-05-01 15:15 41.18037 19.69847 3996 ft 201 kts 83°
2026-05-01 15:15 41.18464 19.73415 3979 ft 193 kts 57°
2026-05-01 15:16 41.20765 19.74813 3584 ft 192 kts
2026-05-01 15:16 41.23456 19.74468 3090 ft 195 kts 359°
2026-05-01 15:17 41.26073 19.74111 2555 ft 181 kts 359°
2026-05-01 15:18 41.29617 19.73638 2019 ft 152 kts
2026-05-01 15:18 41.30610 19.73526 1993 ft 139 kts 356°
2026-05-01 15:19 41.33464 19.73040 1778 ft 136 kts
2026-05-01 15:19 41.35480 19.72993 1274 ft 148 kts
2026-05-01 15:19 41.36525 19.73014 1007 ft 150 kts
2026-05-01 15:20 41.38569 19.72410 547 ft 147 kts 355°
2026-05-01 15:20 41.39557 19.72311 306 ft 141 kts 359°
2026-05-01 15:20 41.40524 19.72181 150 ft 137 kts 358°
2026-05-01 15:21 41.41364 19.72070 125 ft 95 kts 354°
2026-05-01 15:21 41.41743 19.72017 120 ft 21 kts 355°
2026-05-01 15:21 41.41850 19.72000 120 ft 12 kts 337°
2026-05-01 15:21 41.41876 19.71902 123 ft 11 kts 264°
2026-05-01 15:22 41.41865 19.71754 123 ft 7 kts 264°
2026-05-01 15:22 41.41860 19.71686 123 ft 7 kts 263°
2026-05-01 15:22 41.41862 19.71623 121 ft 7 kts 290°
2026-05-01 15:23 41.41900 19.71589 121 ft 7 kts 347°
2026-05-01 15:23 41.41946 19.71581 119 ft 7 kts 353°
2026-05-01 15:23 41.41977 19.71576 121 ft 7 kts 354°
2026-05-01 15:23 41.42030 19.71569 121 ft 8 kts 355°
2026-05-01 15:24 41.42066 19.71543 120 ft 6 kts 282°
2026-05-01 15:24 41.42066 19.71506 121 ft 1 kts 265°
2026-05-01 15:24 41.42065 19.71499 120 ft 0 kts 265°
2026-05-01 15:24 41.42065 19.71497 120 ft 0 kts 265°